TimeAKDT,TemperatureF,Dew PointF,Humidity,Sea Level PressureIn,VisibilityMPH,Wind Direction,Wind SpeedMPH,Gust SpeedMPH,PrecipitationIn,Events,Conditions,WindDirDegrees,DateUTC
12:03 AM,55.4,53.6,94,30.06,1.5,Calm,Calm,-,N/A,,Overcast,0,2013-08-05 08:03:00
12:06 AM,53.6,53.6,100,30.06,0.8,Calm,Calm,-,N/A,,Overcast,0,2013-08-05 08:06:00
12:11 AM,53.6,53.6,100,30.06,0.2,Calm,Calm,-,N/A,Fog,Fog,0,2013-08-05 08:11:00
12:36 AM,53.6,51.8,94,30.05,0.2,Calm,Calm,-,N/A,Fog,Fog,0,2013-08-05 08:36:00
12:53 AM,53.1,52.0,96,30.05,0.2,Calm,Calm,-,N/A,Fog,Fog,0,2013-08-05 08:53:00
1:02 AM,51.8,51.8,100,30.06,0.5,Calm,Calm,-,N/A,Fog,Fog,0,2013-08-05 09:02:00
1:14 AM,51.8,51.8,100,30.05,0.2,Calm,Calm,-,N/A,Fog,Fog,0,2013-08-05 09:14:00
1:32 AM,53.6,51.8,94,30.06,0.5,Calm,Calm,-,N/A,Fog,Fog,0,2013-08-05 09:32:00
1:53 AM,52.0,51.1,97,30.04,0.8,Calm,Calm,-,0.01,Rain,Light Rain,0,2013-08-05 09:53:00
1:59 AM,53.6,51.8,94,30.04,1.5,Calm,Calm,-,0.00,Rain,Light Rain,0,2013-08-05 09:59:00
2:02 AM,53.6,51.8,94,30.04,2.0,Calm,Calm,-,0.00,,Overcast,0,2013-08-05 10:02:00
2:25 AM,53.6,53.6,100,30.04,4.0,Calm,Calm,-,0.00,Rain,Light Rain,0,2013-08-05 10:25:00
2:53 AM,55.0,53.1,93,30.04,3.0,Calm,Calm,-,0.01,Rain,Light Rain,0,2013-08-05 10:53:00
3:01 AM,53.6,51.8,94,30.05,3.0,Calm,Calm,-,0.00,,Overcast,0,2013-08-05 11:01:00
3:07 AM,53.6,51.8,94,30.05,1.8,Calm,Calm,-,0.00,,Overcast,0,2013-08-05 11:07:00
3:14 AM,53.6,51.8,94,30.03,2.5,Calm,Calm,-,0.00,,Overcast,0,2013-08-05 11:14:00
3:22 AM,51.8,51.8,100,30.03,1.2,Calm,Calm,-,0.00,,Overcast,0,2013-08-05 11:22:00
3:34 AM,53.6,51.8,94,30.04,1.8,Calm,Calm,-,0.00,,Overcast,0,2013-08-05 11:34:00
3:39 AM,53.6,51.8,94,30.04,2.0,Calm,Calm,-,0.00,Rain,Light Rain,0,2013-08-05 11:39:00
3:53 AM,54.0,53.1,97,30.05,5.0,Calm,Calm,-,0.00,Rain,Light Rain,0,2013-08-05 11:53:00
4:04 AM,51.8,51.8,100,30.03,1.8,Calm,Calm,-,0.01,,Overcast,0,2013-08-05 12:04:00
4:22 AM,53.6,51.8,94,30.05,3.0,Calm,Calm,-,0.01,Rain,Light Rain,0,2013-08-05 12:22:00
4:33 AM,53.6,51.8,94,30.03,1.8,Calm,Calm,-,0.01,,Overcast,0,2013-08-05 12:33:00
4:37 AM,53.6,51.8,94,30.03,0.8,Calm,Calm,-,0.01,,Overcast,0,2013-08-05 12:37:00
4:40 AM,53.6,51.8,94,30.03,0.5,Calm,Calm,-,0.01,Fog-Rain,Light Rain,0,2013-08-05 12:40:00
4:48 AM,53.6,51.8,94,30.03,1.8,Calm,Calm,-,0.01,Rain,Light Rain,0,2013-08-05 12:48:00
4:53 AM,53.1,52.0,96,30.05,1.0,Calm,Calm,-,0.01,Rain,Light Rain,0,2013-08-05 12:53:00
4:58 AM,53.6,51.8,94,30.04,0.5,Calm,Calm,-,N/A,Fog,Fog,0,2013-08-05 12:58:00
5:11 AM,53.6,51.8,94,30.03,1.0,Calm,Calm,-,0.01,Rain,Light Rain,0,2013-08-05 13:11:00
5:32 AM,51.8,51.8,100,30.04,1.8,Calm,Calm,-,0.01,Rain,Light Rain,0,2013-08-05 13:32:00
5:50 AM,53.6,51.8,94,30.03,3.0,Calm,Calm,-,0.01,,Overcast,0,2013-08-05 13:50:00
5:53 AM,54.0,52.0,93,30.03,4.0,Calm,Calm,-,0.01,,Overcast,0,2013-08-05 13:53:00
5:59 AM,53.6,51.8,94,30.03,1.5,Calm,Calm,-,0.00,Rain,Light Rain,0,2013-08-05 13:59:00
6:02 AM,53.6,51.8,94,30.04,0.8,Calm,Calm,-,0.01,Rain,Light Rain,0,2013-08-05 14:02:00
6:53 AM,52.0,51.1,97,30.03,0.8,Calm,Calm,-,0.01,,Overcast,0,2013-08-05 14:53:00
6:56 AM,53.6,51.8,94,30.03,1.0,Calm,Calm,-,N/A,,Overcast,0,2013-08-05 14:56:00
7:07 AM,51.8,51.8,100,30.04,0.5,Calm,Calm,-,N/A,Fog,Fog,0,2013-08-05 15:07:00
7:19 AM,51.8,50.0,94,30.03,0.5,Calm,Calm,-,0.01,Fog,Fog,0,2013-08-05 15:19:00
7:31 AM,53.6,51.8,94,30.03,0.8,Calm,Calm,-,0.01,,Overcast,0,2013-08-05 15:31:00
7:35 AM,53.6,51.8,94,30.03,0.8,Calm,Calm,-,0.01,,Overcast,0,2013-08-05 15:35:00
7:53 AM,54.0,53.1,97,30.04,1.2,Calm,Calm,-,0.01,,Overcast,0,2013-08-05 15:53:00
8:00 AM,53.6,53.6,100,30.03,1.5,Calm,Calm,-,N/A,,Overcast,0,2013-08-05 16:00:00
8:04 AM,53.6,53.6,100,30.03,0.8,Calm,Calm,-,N/A,,Overcast,0,2013-08-05 16:04:00
8:15 AM,51.8,51.8,100,30.05,0.2,Calm,Calm,-,N/A,Fog,Fog,0,2013-08-05 16:15:00
8:29 AM,53.6,51.8,94,30.04,0.5,SSW,3.5,-,N/A,Fog,Fog,210,2013-08-05 16:29:00
8:53 AM,53.1,51.1,93,30.05,0.5,SW,3.5,-,N/A,Fog,Fog,220,2013-08-05 16:53:00
9:05 AM,51.8,51.8,100,30.04,0.2,Calm,Calm,-,N/A,Fog,Fog,0,2013-08-05 17:05:00
9:25 AM,53.6,53.6,100,30.04,0.5,Calm,Calm,-,N/A,Fog,Fog,0,2013-08-05 17:25:00
9:53 AM,53.1,52.0,96,30.04,0.5,Calm,Calm,-,0.01,Fog-Rain,Light Rain,0,2013-08-05 17:53:00
10:02 AM,53.6,51.8,94,30.04,0.2,SSW,3.5,-,0.00,Fog,Fog,210,2013-08-05 18:02:00
10:22 AM,53.6,53.6,100,30.04,0.5,Calm,Calm,-,0.00,Fog,Fog,0,2013-08-05 18:22:00
10:30 AM,53.6,53.6,100,30.04,0.2,Calm,Calm,-,0.00,Fog,Fog,0,2013-08-05 18:30:00
10:38 AM,55.4,53.6,94,30.04,0.8,SSW,3.5,-,0.00,,Overcast,210,2013-08-05 18:38:00
10:49 AM,53.6,51.8,94,30.04,0.2,Calm,Calm,-,0.00,Fog,Fog,0,2013-08-05 18:49:00
10:53 AM,53.1,52.0,96,30.06,0.5,SW,3.5,-,0.00,Fog,Fog,220,2013-08-05 18:53:00
11:15 AM,53.6,51.8,94,30.05,0.5,WSW,3.5,-,0.00,Fog-Rain,Light Rain,240,2013-08-05 19:15:00
11:21 AM,53.6,53.6,100,30.05,1.5,SW,3.5,-,0.00,,Overcast,220,2013-08-05 19:21:00
11:26 AM,53.6,53.6,100,30.05,2.5,Calm,Calm,-,0.00,,Overcast,0,2013-08-05 19:26:00
11:28 AM,53.6,53.6,100,30.05,1.2,Calm,Calm,-,0.00,,Overcast,0,2013-08-05 19:28:00
11:30 AM,53.6,53.6,100,30.05,1.0,Calm,Calm,-,0.00,,Overcast,0,2013-08-05 19:30:00
11:35 AM,53.6,53.6,100,30.05,0.5,Calm,Calm,-,0.00,Fog,Fog,0,2013-08-05 19:35:00
11:47 AM,53.6,53.6,100,30.05,1.5,Calm,Calm,-,0.00,,Overcast,0,2013-08-05 19:47:00
11:50 AM,55.4,53.6,94,30.06,4.0,Calm,Calm,-,0.00,,Overcast,0,2013-08-05 19:50:00
11:53 AM,55.0,54.0,96,30.06,6.0,Calm,Calm,-,0.00,,Overcast,0,2013-08-05 19:53:00
12:04 PM,55.4,53.6,94,30.05,10.0,SW,3.5,-,N/A,,Overcast,220,2013-08-05 20:04:00
12:53 PM,55.9,53.1,90,30.05,10.0,WSW,5.8,-,N/A,,Overcast,240,2013-08-05 20:53:00
1:53 PM,59.0,54.0,83,30.04,10.0,Variable,3.5,-,N/A,,Overcast,0,2013-08-05 21:53:00
2:53 PM,60.1,54.0,80,30.04,10.0,SSW,6.9,-,N/A,,Overcast,210,2013-08-05 22:53:00
3:53 PM,59.0,54.0,83,30.04,10.0,SW,9.2,-,N/A,,Overcast,220,2013-08-05 23:53:00
4:53 PM,59.0,54.0,83,30.03,10.0,WSW,15.0,-,N/A,,Overcast,250,2013-08-06 00:53:00
5:53 PM,57.9,53.1,84,30.03,10.0,SW,12.7,-,N/A,,Mostly Cloudy,230,2013-08-06 01:53:00
6:53 PM,61.0,54.0,78,30.04,10.0,WSW,12.7,-,N/A,,Mostly Cloudy,250,2013-08-06 02:53:00
7:53 PM,59.0,54.0,83,30.04,10.0,SW,4.6,-,N/A,,Overcast,230,2013-08-06 03:53:00
8:53 PM,61.0,54.0,78,30.06,10.0,Calm,Calm,-,N/A,,Overcast,0,2013-08-06 04:53:00
9:53 PM,60.1,55.0,83,30.06,10.0,Calm,Calm,-,N/A,,Overcast,0,2013-08-06 05:53:00
10:53 PM,57.9,54.0,87,30.06,10.0,Calm,Calm,-,N/A,,Mostly Cloudy,0,2013-08-06 06:53:00
11:24 PM,57.2,55.4,94,30.07,10.0,Calm,Calm,-,N/A,,Mostly Cloudy,0,2013-08-06 07:24:00
11:53 PM,57.0,55.0,93,30.07,10.0,Calm,Calm,-,N/A,,Mostly Cloudy,0,2013-08-06 07:53:00